Regional Weather Roundup
Issued by NWS Charleston, SC

Current Version | Previous Version | Text Only | Print | Product List | Glossary Off
Versions: 1 2 3 4 5 6 7 8 9 10 11 12 13 14 15 16 17 18 19 20 21 22 23 24 25 26 27 28 29 30 31 32 33 34 35 36 37 38 39 40 41 42 43 44 45 46 47 48 49 50

000
ASUS42 KCHS 301212
RWRCHS

REGIONAL WEATHER ROUNDUP
NATIONAL WEATHER SERVICE CHARLESTON SC
800 AM EDT TUE JUN 30 2015

NOTE: "FAIR" INDICATES FEW OR NO CLOUDS BELOW 12,000 FEET WITH NO
SIGNIFICANT WEATHER AND/OR OBSTRUCTIONS TO VISIBILITY.

NOT ALL STATIONS ARE QUALITY CONTROLLED BY THE NATIONAL
WEATHER SERVICE. USE DATA WITH CAUTION...ESPECIALLY
DEWPOINT OBSERVATIONS.

SCZ027-030-031-034>040-042>050-301300-
...SOUTHEAST SOUTH CAROLINA...

CITY           SKY/WX    TMP DP  RH WIND       PRES   REMARKS
N CHARLESTON   MOSUNNY   77  66  68 W7        30.01S
6HR MIN TEMP:  74; 6HR MAX TEMP:  77;

WATERFRONT PAR   N/A     78  70  76 W5        29.99R
MOUNT PLEASANT FAIR      79  68  69 SW7       30.02R
JOHNS ISLAND   FAIR      79  70  73 W7        30.02S
PINOPOLIS      NOT AVBL
MONCKS CORNER  FAIR      77  66  69 SW6       30.01R
SUMMERVILLE    FAIR      72  68  88 SW3       30.03R
BEAUFORT MCAS  MOSUNNY   79  70  74 SW12      30.03R
6HR MIN TEMP:  73; 6HR MAX TEMP:  79;

BEAUFORT ARPT  FAIR      79  70  73 W9        30.02S
HILTON HEAD IS SUNNY     77  70  78 SW6       30.04S
WALTERBORO     SUNNY     73  64  73 W6        30.03S
ALLENDALE      FAIR      73  68  83 W5        30.01S

...SOUTHERN MIDLANDS AND PEE DEE...

CITY           SKY/WX    TMP DP  RH WIND       PRES   REMARKS
GEORGETOWN     NOT AVBL
KINGSTREE      NOT AVBL
ORANGEBURG     SUNNY     72  65  78 SW6       30.01R
6HR MIN TEMP:  67; 6HR MAX TEMP:  72;

BARNWELL       FAIR      73  68  83 SW5       30.02R
AIKEN          FAIR     N/A N/A N/A W7        30.04R
MANNING        FAIR      73  63  68 SW5       30.01R
COLUMBIA       MOSUNNY   75  63  66 W6        29.99R
6HR MIN TEMP:  70; 6HR MAX TEMP:  75;

SUMTER         SUNNY     75  64  67 SW8       29.98R
6HR MIN TEMP:  71; 6HR MAX TEMP:  75;

FLORENCE       SUNNY     74  66  76 SW8       29.99R
6HR MIN TEMP:  70; 6HR MAX TEMP:  74;

MYRTLE BEACH   SUNNY     79  66  65 W12       30.02R
N MYRTLE BEACH SUNNY     78  68  71 W7        30.00R
6HR MIN TEMP:  75; 6HR MAX TEMP:  78;


$$

GAZ063-065-086>088-099>101-113>116-118-119-134>141-150-301300-
...SOUTHEAST GEORGIA...

CITY           SKY/WX    TMP DP  RH WIND       PRES   REMARKS
SAVANNAH ARPT  PTSUNNY   76  69  79 W7        30.03S
6HR MIN TEMP:  71; 6HR MAX TEMP:  76;

HUNTER AAF     MOSUNNY   76  72  89 W7        30.01S
6HR MIN TEMP:  71; 6HR MAX TEMP:  76;

FORT STEWART   SUNNY     75  71  85 W8        30.02S
6HR MIN TEMP:  69; 6HR MAX TEMP:  75;

STATESBORO     SUNNY     76  73  90 W7G16     30.03S
SYLVANIA       SUNNY     75  72  89 CALM      30.04S
CLAXTON        FAIR      73  72  94 CALM      30.04R

...CSRA...CENTRAL AND FAR SOUTHEAST GEORGIA...

CITY           SKY/WX    TMP DP  RH WIND       PRES   REMARKS
THOMSON        SUNNY     74  68  81 S5        30.06R
AUGUSTA-BUSH   SUNNY     74  66  76 W5        30.00R
6HR MIN TEMP:  67; 6HR MAX TEMP:  74;

AUGUSTA-DANIEL SUNNY     75  65  70 SW3       30.02R
SWAINSBORO     FAIR     N/A N/A N/A W3        30.04S
VIDALIA        SUNNY     73  70  88 W5        30.04S
EASTMAN        FAIR      75  75 100 W5        30.07R
HAZLEHURST     FAIR      77  75  94 W6        30.04S
ALMA           SUNNY     73  71  93 SW5       30.06R FOG
6HR MIN TEMP:  68; 6HR MAX TEMP:  73;

WAYCROSS       MOSUNNY   76  76  98 W5        30.06R
JESUP          FAIR      73  72  94 CALM      30.05S
BAXLEY         FAIR      75  72  88 W5        30.05R
BRUNSWICK      SUNNY     73  72  94 W6        30.06R
SAINT SIMONS   SUNNY     75  72  90 W6        30.05R
6HR MIN TEMP:  73; 6HR MAX TEMP:  77;


$$

SCZ027-028-034-036>038-045-046-048>050-GAZ119-141-301300-
...LAKE AND SUPPLEMENTAL COASTAL OBSERVATIONS...

STATION/POSITION TIME  TEMP    WIND        PRES    WAVE   SWELL
                       AIR SEA DIR/SP/G            HT/PER HT/PER/DIR
                 (UTC) (F)     (DEG/KT/KT) (MB)    (FT/S) (FT/S/D)
UPR LAKE MARION  NOT AVBL
WINYAH BAY       NOT AVBL
LAKE MURRAY      1100   78     250/ 10/ 14 1014.2R
ACE BASIN NERRS  NOT AVBL
FORT PULASKI     1100   76 84  250/  5/  8 1017.3R
SAPELO ISLAND    1100   76     250/  6     1017.0S

$$

ANZ835-935-AMZ111-154-330-350-352-354-370-450-454-472-301300-
...C-MAN AND BUOY OBSERVATIONS...

STATION/POSITION TIME  TEMP    WIND        PRES    WAVE   SWELL
                       AIR SEA DIR/SP/G            HT/PER HT/PER/DIR
                 (UTC) (F)     (DEG/KT/KT) (MB)    (FT/S) (FT/S/D)
BUOY 41004       1150   81 82  250/ 14/ 16 1015.9R   4/ 8   2/ 8
BUOY 41008       1150   78 79  260/ 10/ 12 1017.3F   2/ 8   2/130/ 8
FOLLY BEACH CMAN 1100   77     250/  6/  8 1016.2R
CAPERS NEARSHORE 1108   80     260/ 14/ 17 1016.2R
FRIPP NEARSHORE  1100   80     270/ 14/ 16 1016.3R


STATION/POSITION TIME  TEMP    WIND        PRES    WAVE   SWELL
                       AIR SEA DIR/SP/G            HT/PER HT/PER/DIR
                 (UTC) (F)     (DEG/KT/KT) (MB)    (FT/S) (FT/S/D)
5E ST. MARYS GA  1121      78                N/A     2/ 8
FRYING PAN BUOY  1150   81 80  240/ 14/ 16 1016.1R   4/ 7   2/140/ 7
BUOY 41025       1150   80 81  250/ 10/ 12 1015.6R   3/ 8   3/170/ 8
CAPE LOOKOUT NC  1100   79     250/  8/ 10 1015.0R
BUOY 41002       1150   78 80  250/ 10/ 12 1017.9R   5/ 7   5/210/ 7
BUOY 41010       1120   82 84  250/ 17/ 21 1018.7R
ST AUGUSTINE FL  1200   78 73  240/  5/  6 1019.5R


$$


USA.gov is the U.S. government's official web portal to all federal, state and local government web resources and services.